keisoku_bi_jifun,keisoku_chi,,,,,,,
2018/12/15 15:35,0.0883,,,,,,,
2018/12/15 15:36,0.0862,,,,,,,
2018/12/15 15:37,0.0840,,,,,,,
2018/12/15 15:38,0.0851,,,,,,,
2018/12/15 15:39,0.0844,,,,,,,
2018/12/15 15:40,0.0876,,,,,,,
2018/12/15 15:41,0.0895,,,,,,,
2018/12/15 15:42,0.0909,,,,,,,
2018/12/15 15:43,0.0880,,,,,,,
2018/12/15 15:44,0.0935,,,,,,,
2018/12/15 15:45,0.0925,,,,,,,
2018/12/15 15:46,0.0874,,,,,,,
2018/12/15 15:47,0.0834,,,,,,,
2018/12/15 15:48,0.0845,,,,,,,
2018/12/15 15:49,0.0815,,,,,,,
2018/12/15 15:50,0.0805,,,,,,,
2018/12/15 15:51,0.0819,,,,,,,
2018/12/15 15:52,0.0805,,,,,,,
2018/12/15 15:53,0.0812,,,,,,,
2018/12/15 15:54,0.0834,,,,,,,
2018/12/15 15:55,0.0782,,,,,,,
2018/12/15 15:56,0.0771,,,,,,,
2018/12/15 15:57,0.0815,,,,,,,
2018/12/15 15:58,0.0836,,,,,,,
2018/12/15 15:59,0.0829,,,,,,,
2018/12/15 16:00,0.0888,,,,,,,
2018/12/15 16:01,0.0914,,,,,,,
2018/12/15 16:02,0.0906,,,,,,,
2018/12/15 16:03,0.0914,,,,,,,
2018/12/15 16:04,0.0917,,,,,,,
2018/12/15 16:05,0.0928,,,,,,,
2018/12/15 16:06,0.0935,,,,,,,
2018/12/15 16:07,0.0995,,,,,,,
2018/12/15 16:08,0.0987,,,,,,,
2018/12/15 16:09,0.1039,,,,,,,
2018/12/15 16:10,0.1065,,,,,,,
2018/12/15 16:11,0.1024,,,,,,,
2018/12/15 16:12,0.0998,,,,,,,
2018/12/15 16:13,0.0995,,,,,,,
2018/12/15 16:14,0.0987,,,,,,,
2018/12/15 16:15,0.1013,,,,,,,
2018/12/15 16:16,0.1009,,,,,,,
2018/12/15 16:17,0.1054,,,,,,,
2018/12/15 16:18,0.1009,,,,,,,
2018/12/15 16:19,0.1035,,,,,,,
2018/12/15 16:20,0.0987,,,,,,,
2018/12/15 16:21,0.0995,,,,,,,
2018/12/15 16:22,0.1028,,,,,,,
2018/12/15 16:23,0.1021,,,,,,,
2018/12/15 16:24,0.1032,,,,,,,
2018/12/15 16:25,0.1050,,,,,,,
2018/12/15 16:26,0.1003,,,,,,,
2018/12/15 16:27,0.0988,,,,,,,
2018/12/15 16:28,0.0962,,,,,,,
2018/12/15 16:29,0.1010,,,,,,,
2018/12/15 16:30,0.0980,,,,,,,
2018/12/15 16:31,0.0995,,,,,,,
2018/12/15 16:32,0.0984,,,,,,,
2018/12/15 16:33,0.0961,,,,,,,
2018/12/15 16:34,0.0979,,,,,,,
2018/12/15 16:35,0.0972,,,,,,,
2018/12/15 16:36,0.0954,,,,,,,
2018/12/15 16:37,0.0957,,,,,,,
2018/12/15 16:38,0.0928,,,,,,,
2018/12/15 16:39,0.0935,,,,,,,
2018/12/15 16:40,0.0865,,,,,,,
2018/12/15 16:41,0.0873,,,,,,,
2018/12/15 16:42,0.0884,,,,,,,
2018/12/15 16:43,0.0869,,,,,,,
2018/12/15 16:44,0.0869,,,,,,,
2018/12/15 16:45,0.0910,,,,,,,
2018/12/15 16:46,0.0944,,,,,,,
2018/12/15 16:47,0.0980,,,,,,,
2018/12/15 16:48,0.0991,,,,,,,
2018/12/15 16:49,0.1027,,,,,,,
2018/12/15 16:50,0.1046,,,,,,,
2018/12/15 16:51,0.1039,,,,,,,
2018/12/15 16:52,0.1050,,,,,,,
2018/12/15 16:53,0.1025,,,,,,,
2018/12/15 16:54,0.1043,,,,,,,
2018/12/15 16:55,0.1025,,,,,,,
2018/12/15 16:56,0.0958,,,,,,,
2018/12/15 16:57,0.0917,,,,,,,
2018/12/15 16:58,0.0906,,,,,,,
2018/12/15 16:59,0.0925,,,,,,,
2018/12/15 17:00,0.0910,,,,,,,
2018/12/15 17:01,0.0876,,,,,,,
2018/12/15 17:02,0.0916,,,,,,,
2018/12/15 17:03,0.0909,,,,,,,
2018/12/15 17:04,0.0924,,,,,,,
2018/12/15 17:05,0.0931,,,,,,,
2018/12/15 17:06,0.0931,,,,,,,
2018/12/15 17:07,0.0945,,,,,,,
2018/12/15 17:08,0.0953,,,,,,,
2018/12/15 17:09,0.0927,,,,,,,
2018/12/15 17:10,0.0887,,,,,,,
2018/12/15 17:11,0.0909,,,,,,,
2018/12/15 17:12,0.0916,,,,,,,
2018/12/15 17:13,0.0928,,,,,,,
2018/12/15 17:14,0.0899,,,,,,,
2018/12/15 17:15,0.0895,,,,,,,
2018/12/15 17:16,0.0877,,,,,,,
2018/12/15 17:17,0.0910,,,,,,,
2018/12/15 17:18,0.0910,,,,,,,
2018/12/15 17:19,0.0925,,,,,,,
2018/12/15 17:20,0.0932,,,,,,,
2018/12/15 17:21,0.0957,,,,,,,
2018/12/15 17:22,0.0954,,,,,,,
2018/12/15 17:23,0.0954,,,,,,,
2018/12/15 17:24,0.0916,,,,,,,
2018/12/15 17:25,0.0938,,,,,,,
2018/12/15 17:26,0.0945,,,,,,,
2018/12/15 17:27,0.0953,,,,,,,
2018/12/15 17:28,0.0957,,,,,,,
2018/12/15 17:29,0.0961,,,,,,,
2018/12/15 17:30,0.0954,,,,,,,
2018/12/15 17:31,0.0932,,,,,,,
2018/12/15 17:32,0.0932,,,,,,,
2018/12/15 17:33,0.0917,,,,,,,
2018/12/15 17:34,0.0925,,,,,,,
2018/12/15 17:35,0.0925,,,,,,,
2018/12/15 17:36,0.0906,,,,,,,
2018/12/15 17:37,0.0914,,,,,,,
2018/12/15 17:38,0.0928,,,,,,,
2018/12/15 17:39,0.0909,,,,,,,
2018/12/15 17:40,0.0943,,,,,,,
2018/12/15 17:41,0.0943,,,,,,,
2018/12/15 17:42,0.1031,,,,,,,
2018/12/15 17:43,0.1005,,,,,,,
2018/12/15 17:44,0.1050,,,,,,,
2018/12/15 17:45,0.1043,,,,,,,
2018/12/15 17:46,0.1025,,,,,,,
2018/12/15 17:47,0.1050,,,,,,,
2018/12/15 17:48,0.1046,,,,,,,
2018/12/15 17:49,0.1017,,,,,,,
2018/12/15 17:50,0.1021,,,,,,,
2018/12/15 17:51,0.0984,,,,,,,
2018/12/15 17:52,0.0976,,,,,,,
2018/12/15 17:53,0.0906,,,,,,,
2018/12/15 17:54,0.0976,,,,,,,
2018/12/15 17:55,0.0969,,,,,,,
2018/12/15 17:56,0.0958,,,,,,,
2018/12/15 17:57,0.0987,,,,,,,
2018/12/15 17:58,0.0976,,,,,,,
2018/12/15 17:59,0.0944,,,,,,,
2018/12/15 18:00,0.0915,,,,,,,
2018/12/15 18:01,0.0896,,,,,,,
2018/12/15 18:02,0.0885,,,,,,,
2018/12/15 18:03,0.0864,,,,,,,
2018/12/15 18:04,0.0871,,,,,,,
2018/12/15 18:05,0.0805,,,,,,,
2018/12/15 18:06,0.0760,,,,,,,
2018/12/15 18:07,0.0756,,,,,,,
2018/12/15 18:08,0.0760,,,,,,,
2018/12/15 18:09,0.0742,,,,,,,
2018/12/15 18:10,0.0756,,,,,,,
2018/12/15 18:11,0.0815,,,,,,,
2018/12/15 18:12,0.0818,,,,,,,
2018/12/15 18:13,0.0807,,,,,,,
2018/12/15 18:14,0.0825,,,,,,,
2018/12/15 18:15,0.0851,,,,,,,
2018/12/15 18:16,0.0917,,,,,,,
2018/12/15 18:17,0.0950,,,,,,,
2018/12/15 18:18,0.0957,,,,,,,
2018/12/15 18:19,0.0925,,,,,,,
2018/12/15 18:20,0.0939,,,,,,,
2018/12/15 18:21,0.0965,,,,,,,
2018/12/15 18:22,0.0943,,,,,,,
2018/12/15 18:23,0.0935,,,,,,,
2018/12/15 18:24,0.0987,,,,,,,
2018/12/15 18:25,0.0973,,,,,,,
2018/12/15 18:26,0.0958,,,,,,,
2018/12/15 18:27,0.0914,,,,,,,
2018/12/15 18:28,0.0899,,,,,,,
2018/12/15 18:29,0.0892,,,,,,,
2018/12/15 18:30,0.0899,,,,,,,
2018/12/15 18:31,0.0881,,,,,,,
2018/12/15 18:32,0.0845,,,,,,,
2018/12/15 18:33,0.0830,,,,,,,
2018/12/15 18:34,0.0797,,,,,,,
2018/12/15 18:35,0.0764,,,,,,,
2018/12/15 18:36,0.0785,,,,,,,
2018/12/15 18:37,0.0796,,,,,,,
2018/12/15 18:38,0.0804,,,,,,,
2018/12/15 18:39,0.0804,,,,,,,
2018/12/15 18:40,0.0833,,,,,,,
2018/12/15 18:41,0.0888,,,,,,,
2018/12/15 18:42,0.0925,,,,,,,
2018/12/15 18:43,0.0917,,,,,,,
2018/12/15 18:44,0.0943,,,,,,,
2018/12/15 18:45,0.1005,,,,,,,
2018/12/15 18:46,0.1015,,,,,,,
2018/12/15 18:47,0.1026,,,,,,,
2018/12/15 18:48,0.1019,,,,,,,
2018/12/15 18:49,0.1001,,,,,,,
2018/12/15 18:50,0.1012,,,,,,,
2018/12/15 18:51,0.1005,,,,,,,
2018/12/15 18:52,0.0971,,,,,,,
2018/12/15 18:53,0.0964,,,,,,,
2018/12/15 18:54,0.1000,,,,,,,
2018/12/15 18:55,0.0996,,,,,,,
2018/12/15 18:56,0.0985,,,,,,,
2018/12/15 18:57,0.0989,,,,,,,
2018/12/15 18:58,0.1005,,,,,,,
2018/12/15 18:59,0.1019,,,,,,,
2018/12/15 19:00,0.1045,,,,,,,
2018/12/15 19:01,0.1052,,,,,,,
2018/12/15 19:02,0.1012,,,,,,,
2018/12/15 19:03,0.0990,,,,,,,
2018/12/15 19:04,0.0968,,,,,,,
2018/12/15 19:05,0.0975,,,,,,,
2018/12/15 19:06,0.0965,,,,,,,
2018/12/15 19:07,0.0991,,,,,,,
2018/12/15 19:08,0.0987,,,,,,,
2018/12/15 19:09,0.0939,,,,,,,
2018/12/15 19:10,0.0903,,,,,,,
2018/12/15 19:11,0.0874,,,,,,,
2018/12/15 19:12,0.0830,,,,,,,
2018/12/15 19:13,0.0845,,,,,,,
2018/12/15 19:14,0.0855,,,,,,,
2018/12/15 19:15,0.0841,,,,,,,
2018/12/15 19:16,0.0860,,,,,,,
2018/12/15 19:17,0.0849,,,,,,,
2018/12/15 19:18,0.0819,,,,,,,
2018/12/15 19:19,0.0837,,,,,,,
2018/12/15 19:20,0.0863,,,,,,,
2018/12/15 19:21,0.0899,,,,,,,
2018/12/15 19:22,0.0921,,,,,,,
2018/12/15 19:23,0.0935,,,,,,,
2018/12/15 19:24,0.0914,,,,,,,
2018/12/15 19:25,0.0921,,,,,,,
2018/12/15 19:26,0.0921,,,,,,,
2018/12/15 19:27,0.0891,,,,,,,
2018/12/15 19:28,0.0943,,,,,,,
2018/12/15 19:29,0.0943,,,,,,,
2018/12/15 19:30,0.0928,,,,,,,
2018/12/15 19:31,0.0914,,,,,,,
2018/12/15 19:32,0.0874,,,,,,,
2018/12/15 19:33,0.0911,,,,,,,
2018/12/15 19:34,0.0907,,,,,,,
2018/12/15 19:35,0.0940,,,,,,,
2018/12/15 19:36,0.0958,,,,,,,
2018/12/15 19:37,0.0991,,,,,,,
2018/12/15 19:38,0.0991,,,,,,,
2018/12/15 19:39,0.0965,,,,,,,
2018/12/15 19:40,0.0995,,,,,,,
2018/12/15 19:41,0.1002,,,,,,,
2018/12/15 19:42,0.0991,,,,,,,
2018/12/15 19:43,0.1046,,,,,,,
2018/12/15 19:44,0.1039,,,,,,,
2018/12/15 19:45,0.1039,,,,,,,
2018/12/15 19:46,0.1043,,,,,,,
2018/12/15 19:47,0.1025,,,,,,,
2018/12/15 19:48,0.1025,,,,,,,
2018/12/15 19:49,0.0999,,,,,,,
2018/12/15 19:50,0.1003,,,,,,,
2018/12/15 19:51,0.0980,,,,,,,
2018/12/15 19:52,0.0944,,,,,,,
2018/12/15 19:53,0.0944,,,,,,,
2018/12/15 19:54,0.0917,,,,,,,
2018/12/15 19:55,0.0895,,,,,,,
2018/12/15 19:56,0.0905,,,,,,,
2018/12/15 19:57,0.0909,,,,,,,
2018/12/15 19:58,0.0935,,,,,,,
2018/12/15 19:59,0.0902,,,,,,,
2018/12/15 20:00,0.0895,,,,,,,
2018/12/15 20:01,0.0869,,,,,,,
2018/12/15 20:02,0.0855,,,,,,,
2018/12/15 20:03,0.0884,,,,,,,
2018/12/15 20:04,0.0909,,,,,,,
2018/12/15 20:05,0.0891,,,,,,,
2018/12/15 20:06,0.0891,,,,,,,
2018/12/15 20:07,0.0932,,,,,,,
2018/12/15 20:08,0.0976,,,,,,,
2018/12/15 20:09,0.0969,,,,,,,
2018/12/15 20:10,0.1002,,,,,,,
2018/12/15 20:11,0.1042,,,,,,,
2018/12/15 20:12,0.1049,,,,,,,
2018/12/15 20:13,0.1042,,,,,,,
2018/12/15 20:14,0.1009,,,,,,,
2018/12/15 20:15,0.0984,,,,,,,
2018/12/15 20:16,0.0995,,,,,,,
2018/12/15 20:17,0.1002,,,,,,,
2018/12/15 20:18,0.1016,,,,,,,
2018/12/15 20:19,0.0979,,,,,,,
2018/12/15 20:20,0.0954,,,,,,,
2018/12/15 20:21,0.0950,,,,,,,
2018/12/15 20:22,0.0946,,,,,,,
2018/12/15 20:23,0.0961,,,,,,,
2018/12/15 20:24,0.0965,,,,,,,
2018/12/15 20:25,0.0997,,,,,,,
2018/12/15 20:26,0.1026,,,,,,,
2018/12/15 20:27,0.1019,,,,,,,
2018/12/15 20:28,0.0990,,,,,,,
2018/12/15 20:29,0.0931,,,,,,,
2018/12/15 20:30,0.0916,,,,,,,
2018/12/15 20:31,0.0961,,,,,,,
2018/12/15 20:32,0.0954,,,,,,,
2018/12/15 20:33,0.0935,,,,,,,
2018/12/15 20:34,0.0932,,,,,,,
2018/12/15 20:35,0.0932,,,,,,,
2018/12/15 20:36,0.0917,,,,,,,
2018/12/15 20:37,0.0906,,,,,,,
2018/12/15 20:38,0.0940,,,,,,,
2018/12/15 20:39,0.0973,,,,,,,
2018/12/15 20:40,0.0962,,,,,,,
2018/12/15 20:41,0.0980,,,,,,,
2018/12/15 20:42,0.0968,,,,,,,
2018/12/15 20:43,0.0950,,,,,,,
2018/12/15 20:44,0.0954,,,,,,,
2018/12/15 20:45,0.0946,,,,,,,
2018/12/15 20:46,0.0975,,,,,,,
2018/12/15 20:47,0.0965,,,,,,,
2018/12/15 20:48,0.0957,,,,,,,
2018/12/15 20:49,0.0920,,,,,,,
2018/12/15 20:50,0.0895,,,,,,,
2018/12/15 20:51,0.0927,,,,,,,
2018/12/15 20:52,0.0895,,,,,,,
2018/12/15 20:53,0.0869,,,,,,,
2018/12/15 20:54,0.0873,,,,,,,
2018/12/15 20:55,0.0895,,,,,,,
2018/12/15 20:56,0.0887,,,,,,,
2018/12/15 20:57,0.0862,,,,,,,
2018/12/15 20:58,0.0925,,,,,,,
2018/12/15 20:59,0.0935,,,,,,,
2018/12/15 21:00,0.0954,,,,,,,
2018/12/15 21:01,0.0983,,,,,,,
2018/12/15 21:02,0.0979,,,,,,,
2018/12/15 21:03,0.1012,,,,,,,
2018/12/15 21:04,0.1015,,,,,,,
2018/12/15 21:05,0.1060,,,,,,,
2018/12/15 21:06,0.1056,,,,,,,
2018/12/15 21:07,0.1056,,,,,,,
2018/12/15 21:08,0.1082,,,,,,,
2018/12/15 21:09,0.1071,,,,,,,
2018/12/15 21:10,0.1045,,,,,,,
2018/12/15 21:11,0.1027,,,,,,,
2018/12/15 21:12,0.1009,,,,,,,
2018/12/15 21:13,0.0980,,,,,,,
2018/12/15 21:14,0.0980,,,,,,,
2018/12/15 21:15,0.0998,,,,,,,
2018/12/15 21:16,0.0954,,,,,,,
2018/12/15 21:17,0.0935,,,,,,,
2018/12/15 21:18,0.0943,,,,,,,
2018/12/15 21:19,0.0943,,,,,,,
2018/12/15 21:20,0.0909,,,,,,,
2018/12/15 21:21,0.0909,,,,,,,
2018/12/15 21:22,0.0913,,,,,,,
2018/12/15 21:23,0.0961,,,,,,,
2018/12/15 21:24,0.0935,,,,,,,
2018/12/15 21:25,0.0910,,,,,,,
2018/12/15 21:26,0.0863,,,,,,,
2018/12/15 21:27,0.0866,,,,,,,
2018/12/15 21:28,0.0870,,,,,,,
2018/12/15 21:29,0.0859,,,,,,,
2018/12/15 21:30,0.0815,,,,,,,
2018/12/15 21:31,0.0815,,,,,,,
2018/12/15 21:32,0.0826,,,,,,,
2018/12/15 21:33,0.0819,,,,,,,
2018/12/15 21:34,0.0785,,,,,,,
2018/12/15 21:35,0.0833,,,,,,,
2018/12/15 21:36,0.0836,,,,,,,
2018/12/15 21:37,0.0844,,,,,,,
2018/12/15 21:38,0.0851,,,,,,,
2018/12/15 21:39,0.0851,,,,,,,
2018/12/15 21:40,0.0858,,,,,,,
2018/12/15 21:41,0.0887,,,,,,,
2018/12/15 21:42,0.0925,,,,,,,
2018/12/15 21:43,0.0914,,,,,,,
2018/12/15 21:44,0.0939,,,,,,,
2018/12/15 21:45,0.0906,,,,,,,
2018/12/15 21:46,0.0903,,,,,,,
2018/12/15 21:47,0.0881,,,,,,,
2018/12/15 21:48,0.0914,,,,,,,
2018/12/15 21:49,0.0928,,,,,,,
2018/12/15 21:50,0.0943,,,,,,,
2018/12/15 21:51,0.0950,,,,,,,
2018/12/15 21:52,0.0939,,,,,,,
2018/12/15 21:53,0.0898,,,,,,,
2018/12/15 21:54,0.0927,,,,,,,
2018/12/15 21:55,0.0920,,,,,,,
2018/12/15 21:56,0.0965,,,,,,,
2018/12/15 21:57,0.0946,,,,,,,
2018/12/15 21:58,0.1002,,,,,,,
2018/12/15 21:59,0.0995,,,,,,,
2018/12/15 22:00,0.0958,,,,,,,
2018/12/15 22:01,0.0936,,,,,,,
2018/12/15 22:02,0.0955,,,,,,,
2018/12/15 22:03,0.0947,,,,,,,
2018/12/15 22:04,0.0947,,,,,,,
2018/12/15 22:05,0.0911,,,,,,,
2018/12/15 22:06,0.0922,,,,,,,
2018/12/15 22:07,0.0910,,,,,,,
2018/12/15 22:08,0.0950,,,,,,,
2018/12/15 22:09,0.0920,,,,,,,
2018/12/15 22:10,0.0895,,,,,,,
2018/12/15 22:11,0.0938,,,,,,,
2018/12/15 22:12,0.0953,,,,,,,
2018/12/15 22:13,0.0949,,,,,,,
2018/12/15 22:14,0.0964,,,,,,,
2018/12/15 22:15,0.0982,,,,,,,
2018/12/15 22:16,0.1022,,,,,,,
2018/12/15 22:17,0.1007,,,,,,,
2018/12/15 22:18,0.0985,,,,,,,
2018/12/15 22:19,0.0945,,,,,,,
2018/12/15 22:20,0.0949,,,,,,,
2018/12/15 22:21,0.0982,,,,,,,
2018/12/15 22:22,0.0964,,,,,,,
2018/12/15 22:23,0.0956,,,,,,,
2018/12/15 22:24,0.0945,,,,,,,
2018/12/15 22:25,0.0938,,,,,,,
2018/12/15 22:26,0.0957,,,,,,,
2018/12/15 22:27,0.0950,,,,,,,
2018/12/15 22:28,0.0943,,,,,,,
2018/12/15 22:29,0.0932,,,,,,,
2018/12/15 22:30,0.0965,,,,,,,
2018/12/15 22:31,0.0939,,,,,,,
2018/12/15 22:32,0.0921,,,,,,,
2018/12/15 22:33,0.0925,,,,,,,
2018/12/15 22:34,0.0932,,,,,,,
2018/12/15 22:35,0.0925,,,,,,,
2018/12/15 22:36,0.0950,,,,,,,
2018/12/15 22:37,0.0924,,,,,,,
2018/12/15 22:38,0.0927,,,,,,,
2018/12/15 22:39,0.0916,,,,,,,
2018/12/15 22:40,0.0965,,,,,,,
2018/12/15 22:41,0.0928,,,,,,,
2018/12/15 22:42,0.0946,,,,,,,
2018/12/15 22:43,0.0950,,,,,,,
2018/12/15 22:44,0.0961,,,,,,,
2018/12/15 22:45,0.0946,,,,,,,
2018/12/15 22:46,0.0950,,,,,,,
2018/12/15 22:47,0.0921,,,,,,,
2018/12/15 22:48,0.0921,,,,,,,
2018/12/15 22:49,0.0903,,,,,,,
2018/12/15 22:50,0.0906,,,,,,,
2018/12/15 22:51,0.0887,,,,,,,
2018/12/15 22:52,0.0935,,,,,,,
2018/12/15 22:53,0.0917,,,,,,,
2018/12/15 22:54,0.0921,,,,,,,
2018/12/15 22:55,0.0906,,,,,,,
2018/12/15 22:56,0.0899,,,,,,,
2018/12/15 22:57,0.0914,,,,,,,
2018/12/15 22:58,0.0914,,,,,,,
2018/12/15 22:59,0.0888,,,,,,,
2018/12/15 23:00,0.0877,,,,,,,
2018/12/15 23:01,0.0885,,,,,,,
2018/12/15 23:02,0.0874,,,,,,,
2018/12/15 23:03,0.0836,,,,,,,
2018/12/15 23:04,0.0869,,,,,,,
2018/12/15 23:05,0.0880,,,,,,,
2018/12/15 23:06,0.0865,,,,,,,
2018/12/15 23:07,0.0895,,,,,,,
2018/12/15 23:08,0.0895,,,,,,,
2018/12/15 23:09,0.0895,,,,,,,
2018/12/15 23:10,0.0902,,,,,,,
2018/12/15 23:11,0.0954,,,,,,,
2018/12/15 23:12,0.0965,,,,,,,
2018/12/15 23:13,0.0932,,,,,,,
2018/12/15 23:14,0.0921,,,,,,,
2018/12/15 23:15,0.0903,,,,,,,
2018/12/15 23:16,0.0874,,,,,,,
2018/12/15 23:17,0.0863,,,,,,,
2018/12/15 23:18,0.0859,,,,,,,
2018/12/15 23:19,0.0834,,,,,,,
2018/12/15 23:20,0.0834,,,,,,,
2018/12/15 23:21,0.0834,,,,,,,
2018/12/15 23:22,0.0822,,,,,,,
2018/12/15 23:23,0.0811,,,,,,,
2018/12/15 23:24,0.0855,,,,,,,
2018/12/15 23:25,0.0840,,,,,,,
2018/12/15 23:26,0.0847,,,,,,,
2018/12/15 23:27,0.0862,,,,,,,
2018/12/15 23:28,0.0873,,,,,,,
2018/12/15 23:29,0.0865,,,,,,,
2018/12/15 23:30,0.0891,,,,,,,
2018/12/15 23:31,0.0935,,,,,,,
2018/12/15 23:32,0.0928,,,,,,,
2018/12/15 23:33,0.0888,,,,,,,
2018/12/15 23:34,0.0895,,,,,,,
2018/12/15 23:35,0.0895,,,,,,,
2018/12/15 23:36,0.0932,,,,,,,
2018/12/15 23:37,0.0906,,,,,,,
2018/12/15 23:38,0.0906,,,,,,,
2018/12/15 23:39,0.0939,,,,,,,
2018/12/15 23:40,0.0928,,,,,,,
2018/12/15 23:41,0.0917,,,,,,,
2018/12/15 23:42,0.0895,,,,,,,
2018/12/15 23:43,0.0913,,,,,,,
2018/12/15 23:44,0.0931,,,,,,,
2018/12/15 23:45,0.0945,,,,,,,
2018/12/15 23:46,0.0909,,,,,,,
2018/12/15 23:47,0.0895,,,,,,,
2018/12/15 23:48,0.0931,,,,,,,
2018/12/15 23:49,0.0949,,,,,,,
2018/12/15 23:50,0.0972,,,,,,,
2018/12/15 23:51,0.1001,,,,,,,
2018/12/15 23:52,0.1008,,,,,,,
2018/12/15 23:53,0.0972,,,,,,,
2018/12/15 23:54,0.0975,,,,,,,
2018/12/15 23:55,0.0983,,,,,,,
2018/12/15 23:56,0.0972,,,,,,,
2018/12/15 23:57,0.1015,,,,,,,
2018/12/15 23:58,0.1023,,,,,,,
2018/12/15 23:59,0.1019,,,,,,,
2018/12/16 0:00,0.1015,,,,,,,
2018/12/16 0:01,0.0964,,,,,,,
2018/12/16 0:02,0.0927,,,,,,,
2018/12/16 0:03,0.0927,,,,,,,
2018/12/16 0:04,0.0956,,,,,,,
2018/12/16 0:05,0.0953,,,,,,,
2018/12/16 0:06,0.0942,,,,,,,
2018/12/16 0:07,0.0920,,,,,,,
2018/12/16 0:08,0.0925,,,,,,,
2018/12/16 0:09,0.0892,,,,,,,
2018/12/16 0:10,0.0892,,,,,,,
2018/12/16 0:11,0.0877,,,,,,,
2018/12/16 0:12,0.0914,,,,,,,
2018/12/16 0:13,0.0946,,,,,,,
2018/12/16 0:14,0.0925,,,,,,,
2018/12/16 0:15,0.0939,,,,,,,
2018/12/16 0:16,0.0917,,,,,,,
2018/12/16 0:17,0.0888,,,,,,,
2018/12/16 0:18,0.0910,,,,,,,
2018/12/16 0:19,0.0943,,,,,,,
2018/12/16 0:20,0.1009,,,,,,,
2018/12/16 0:21,0.0998,,,,,,,
2018/12/16 0:22,0.1039,,,,,,,
2018/12/16 0:23,0.1010,,,,,,,
2018/12/16 0:24,0.0988,,,,,,,
2018/12/16 0:25,0.1003,,,,,,,
2018/12/16 0:26,0.0995,,,,,,,
2018/12/16 0:27,0.0999,,,,,,,
2018/12/16 0:28,0.1028,,,,,,,
2018/12/16 0:29,0.1003,,,,,,,
2018/12/16 0:30,0.0970,,,,,,,
2018/12/16 0:31,0.0965,,,,,,,
2018/12/16 0:32,0.0999,,,,,,,
2018/12/16 0:33,0.0944,,,,,,,
2018/12/16 0:34,0.0962,,,,,,,
2018/12/16 0:35,0.0929,,,,,,,
2018/12/16 0:36,0.0918,,,,,,,
2018/12/16 0:37,0.0930,,,,,,,
2018/12/16 0:38,0.0945,,,,,,,
2018/12/16 0:39,0.0989,,,,,,,
2018/12/16 0:40,0.1029,,,,,,,
2018/12/16 0:41,0.0992,,,,,,,
2018/12/16 0:42,0.1000,,,,,,,
2018/12/16 0:43,0.0992,,,,,,,
2018/12/16 0:44,0.0974,,,,,,,
2018/12/16 0:45,0.0981,,,,,,,
2018/12/16 0:46,0.1017,,,,,,,
2018/12/16 0:47,0.0988,,,,,,,
2018/12/16 0:48,0.0969,,,,,,,
2018/12/16 0:49,0.0947,,,,,,,
2018/12/16 0:50,0.0892,,,,,,,
2018/12/16 0:51,0.0877,,,,,,,
2018/12/16 0:52,0.0903,,,,,,,
2018/12/16 0:53,0.0887,,,,,,,
2018/12/16 0:54,0.0858,,,,,,,
2018/12/16 0:55,0.0902,,,,,,,
2018/12/16 0:56,0.0917,,,,,,,
2018/12/16 0:57,0.0888,,,,,,,
2018/12/16 0:58,0.0921,,,,,,,
2018/12/16 0:59,0.0928,,,,,,,
2018/12/16 1:00,0.0957,,,,,,,
2018/12/16 1:01,0.0943,,,,,,,
2018/12/16 1:02,0.0906,,,,,,,
2018/12/16 1:03,0.0903,,,,,,,
2018/12/16 1:04,0.0940,,,,,,,
2018/12/16 1:05,0.0965,,,,,,,
2018/12/16 1:06,0.0969,,,,,,,
2018/12/16 1:07,0.0921,,,,,,,
2018/12/16 1:08,0.0935,,,,,,,
2018/12/16 1:09,0.0935,,,,,,,
2018/12/16 1:10,0.0914,,,,,,,
2018/12/16 1:11,0.0895,,,,,,,
2018/12/16 1:12,0.0939,,,,,,,
2018/12/16 1:13,0.0954,,,,,,,
2018/12/16 1:14,0.0957,,,,,,,
2018/12/16 1:15,0.0909,,,,,,,
2018/12/16 1:16,0.0887,,,,,,,
2018/12/16 1:17,0.0873,,,,,,,
2018/12/16 1:18,0.0887,,,,,,,
2018/12/16 1:19,0.0884,,,,,,,
2018/12/16 1:20,0.0876,,,,,,,
2018/12/16 1:21,0.0905,,,,,,,
2018/12/16 1:22,0.0905,,,,,,,
2018/12/16 1:23,0.0887,,,,,,,
2018/12/16 1:24,0.0898,,,,,,,
2018/12/16 1:25,0.0873,,,,,,,
2018/12/16 1:26,0.0869,,,,,,,
2018/12/16 1:27,0.0869,,,,,,,
2018/12/16 1:28,0.0895,,,,,,,
2018/12/16 1:29,0.0898,,,,,,,
2018/12/16 1:30,0.0905,,,,,,,
2018/12/16 1:31,0.0902,,,,,,,
2018/12/16 1:32,0.0891,,,,,,,
2018/12/16 1:33,0.0909,,,,,,,
2018/12/16 1:34,0.0898,,,,,,,
2018/12/16 1:35,0.0887,,,,,,,
2018/12/16 1:36,0.0902,,,,,,,
2018/12/16 1:37,0.0898,,,,,,,
2018/12/16 1:38,0.0887,,,,,,,
2018/12/16 1:39,0.0847,,,,,,,
2018/12/16 1:40,0.0833,,,,,,,
2018/12/16 1:41,0.0865,,,,,,,
2018/12/16 1:42,0.0876,,,,,,,
2018/12/16 1:43,0.0884,,,,,,,
2018/12/16 1:44,0.0895,,,,,,,
2018/12/16 1:45,0.0909,,,,,,,
2018/12/16 1:46,0.0905,,,,,,,
2018/12/16 1:47,0.0898,,,,,,,
2018/12/16 1:48,0.0916,,,,,,,
2018/12/16 1:49,0.0931,,,,,,,
2018/12/16 1:50,0.0949,,,,,,,
2018/12/16 1:51,0.0964,,,,,,,
2018/12/16 1:52,0.0953,,,,,,,
2018/12/16 1:53,0.0956,,,,,,,
2018/12/16 1:54,0.0927,,,,,,,
2018/12/16 1:55,0.0895,,,,,,,
2018/12/16 1:56,0.0916,,,,,,,
2018/12/16 1:57,0.0920,,,,,,,
2018/12/16 1:58,0.0920,,,,,,,
2018/12/16 1:59,0.0916,,,,,,,
2018/12/16 2:00,0.0938,,,,,,,
2018/12/16 2:01,0.0931,,,,,,,
2018/12/16 2:02,0.0935,,,,,,,
2018/12/16 2:03,0.0920,,,,,,,
2018/12/16 2:04,0.0979,,,,,,,
2018/12/16 2:05,0.1001,,,,,,,
2018/12/16 2:06,0.1045,,,,,,,
2018/12/16 2:07,0.1024,,,,,,,
2018/12/16 2:08,0.1053,,,,,,,
2018/12/16 2:09,0.1035,,,,,,,
2018/12/16 2:10,0.1013,,,,,,,
2018/12/16 2:11,0.0980,,,,,,,
2018/12/16 2:12,0.0955,,,,,,,
2018/12/16 2:13,0.0933,,,,,,,
2018/12/16 2:14,0.0947,,,,,,,
2018/12/16 2:15,0.0877,,,,,,,
2018/12/16 2:16,0.0893,,,,,,,
2018/12/16 2:17,0.0855,,,,,,,
2018/12/16 2:18,0.0855,,,,,,,
2018/12/16 2:19,0.0841,,,,,,,
2018/12/16 2:20,0.0852,,,,,,,
2018/12/16 2:21,0.0830,,,,,,,
2018/12/16 2:22,0.0841,,,,,,,
2018/12/16 2:23,0.0834,,,,,,,
2018/12/16 2:24,0.0870,,,,,,,
2018/12/16 2:25,0.0904,,,,,,,
2018/12/16 2:26,0.0925,,,,,,,
2018/12/16 2:27,0.0881,,,,,,,
2018/12/16 2:28,0.0892,,,,,,,
2018/12/16 2:29,0.0877,,,,,,,
2018/12/16 2:30,0.0904,,,,,,,
2018/12/16 2:31,0.0907,,,,,,,
2018/12/16 2:32,0.0918,,,,,,,
2018/12/16 2:33,0.0936,,,,,,,
2018/12/16 2:34,0.1014,,,,,,,
2018/12/16 2:35,0.1040,,,,,,,
2018/12/16 2:36,0.1006,,,,,,,
2018/12/16 2:37,0.0999,,,,,,,
2018/12/16 2:38,0.1032,,,,,,,
2018/12/16 2:39,0.1054,,,,,,,
2018/12/16 2:40,0.1054,,,,,,,
2018/12/16 2:41,0.1061,,,,,,,
2018/12/16 2:42,0.1057,,,,,,,
2018/12/16 2:43,0.1075,,,,,,,
2018/12/16 2:44,0.1061,,,,,,,
2018/12/16 2:45,0.1027,,,,,,,
2018/12/16 2:46,0.1024,,,,,,,
2018/12/16 2:47,0.1031,,,,,,,
2018/12/16 2:48,0.1020,,,,,,,
2018/12/16 2:49,0.1013,,,,,,,
2018/12/16 2:50,0.0984,,,,,,,
2018/12/16 2:51,0.1002,,,,,,,
2018/12/16 2:52,0.0990,,,,,,,
2018/12/16 2:53,0.0972,,,,,,,
2018/12/16 2:54,0.0957,,,,,,,
2018/12/16 2:55,0.0921,,,,,,,
2018/12/16 2:56,0.0910,,,,,,,
2018/12/16 2:57,0.0847,,,,,,,
2018/12/16 2:58,0.0822,,,,,,,
2018/12/16 2:59,0.0833,,,,,,,
2018/12/16 3:00,0.0844,,,,,,,
2018/12/16 3:01,0.0865,,,,,,,
2018/12/16 3:02,0.0855,,,,,,,
2018/12/16 3:03,0.0833,,,,,,,
2018/12/16 3:04,0.0873,,,,,,,
2018/12/16 3:05,0.0905,,,,,,,
2018/12/16 3:06,0.0931,,,,,,,
2018/12/16 3:07,0.0916,,,,,,,
2018/12/16 3:08,0.0891,,,,,,,
2018/12/16 3:09,0.0920,,,,,,,
2018/12/16 3:10,0.0938,,,,,,,
2018/12/16 3:11,0.0938,,,,,,,
2018/12/16 3:12,0.0942,,,,,,,
2018/12/16 3:13,0.0971,,,,,,,
2018/12/16 3:14,0.0938,,,,,,,
2018/12/16 3:15,0.0965,,,,,,,
2018/12/16 3:16,0.0946,,,,,,,
2018/12/16 3:17,0.0957,,,,,,,
2018/12/16 3:18,0.0990,,,,,,,
2018/12/16 3:19,0.1008,,,,,,,
2018/12/16 3:20,0.1031,,,,,,,
2018/12/16 3:21,0.1024,,,,,,,
2018/12/16 3:22,0.1009,,,,,,,
2018/12/16 3:23,0.0998,,,,,,,
2018/12/16 3:24,0.1010,,,,,,,
2018/12/16 3:25,0.1028,,,,,,,
2018/12/16 3:26,0.0998,,,,,,,
2018/12/16 3:27,0.1002,,,,,,,
2018/12/16 3:28,0.1009,,,,,,,
2018/12/16 3:29,0.1009,,,,,,,
2018/12/16 3:30,0.1079,,,,,,,
2018/12/16 3:31,0.1009,,,,,,,
2018/12/16 3:32,0.1016,,,,,,,
2018/12/16 3:33,0.0984,,,,,,,
2018/12/16 3:34,0.0969,,,,,,,
2018/12/16 3:35,0.0928,,,,,,,
2018/12/16 3:36,0.0932,,,,,,,
2018/12/16 3:37,0.0917,,,,,,,
2018/12/16 3:38,0.0892,,,,,,,
2018/12/16 3:39,0.0866,,,,,,,
2018/12/16 3:40,0.0837,,,,,,,
2018/12/16 3:41,0.0804,,,,,,,
2018/12/16 3:42,0.0793,,,,,,,
2018/12/16 3:43,0.0796,,,,,,,
2018/12/16 3:44,0.0844,,,,,,,
2018/12/16 3:45,0.0877,,,,,,,
2018/12/16 3:46,0.0899,,,,,,,
2018/12/16 3:47,0.0877,,,,,,,
2018/12/16 3:48,0.0863,,,,,,,
2018/12/16 3:49,0.0885,,,,,,,
2018/12/16 3:50,0.0929,,,,,,,
2018/12/16 3:51,0.0944,,,,,,,
2018/12/16 3:52,0.0955,,,,,,,
2018/12/16 3:53,0.0984,,,,,,,
2018/12/16 3:54,0.0955,,,,,,,
2018/12/16 3:55,0.0958,,,,,,,
2018/12/16 3:56,0.0965,,,,,,,
2018/12/16 3:57,0.0955,,,,,,,
2018/12/16 3:58,0.0984,,,,,,,
2018/12/16 3:59,0.1013,,,,,,,
2018/12/16 4:00,0.1043,,,,,,,
2018/12/16 4:01,0.1024,,,,,,,
2018/12/16 4:02,0.1027,,,,,,,
2018/12/16 4:03,0.1027,,,,,,,
2018/12/16 4:04,0.1056,,,,,,,
2018/12/16 4:05,0.1045,,,,,,,
2018/12/16 4:06,0.1002,,,,,,,
2018/12/16 4:07,0.0954,,,,,,,
2018/12/16 4:08,0.0968,,,,,,,
2018/12/16 4:09,0.0972,,,,,,,
2018/12/16 4:10,0.0939,,,,,,,